Hourly Data Report for September 12, 2017

All times are specified in Local Standard Time (LST). Add 1 hour to adjust for Daylight Saving Time where and when it is observed.

FREDERICTON
NEW BRUNSWICK

45°52'08.000" N
66°32'14.000" W
20.70 m
8101505
71700
YFC

Download Data

Hourly Data (September 2017)
Hourly Data Report for September 12, 2017
Temp Definition
°C
Dew Point Temp Definition
°C
Rel Hum Definition
%
Wind Dir Definition
10's deg

Wind Spd Definition
km/h
Visibility Definition
km
Stn Press Definition
kPa
Hmdx Definition


Wind Chill Definition


Weather Definition


TIME
00:00 Legend Double Dagger 11.2 10.4 95 LegendMM 4 16.1 101.34     LegendNANA
01:00 Legend Double Dagger 10.6 10.0 96   0 16.1 101.32     LegendNANA
02:00 Legend Double Dagger 9.4 9.0 97 29 4 16.1 101.25     LegendNANA
03:00 Legend Double Dagger 10.7 10.3 97 30 9 16.1 101.22     LegendNANA
04:00 Legend Double Dagger 9.0 8.6 97 LegendMM 4 16.1 101.15     LegendNANA
05:00 Legend Double Dagger 8.0 7.7 98   0 9.7 101.11     Fog
06:00 Legend Double Dagger 7.2 6.9 98 20 8 16.1 101.10     LegendNANA
07:00 Legend Double Dagger 7.7 7.4 98 20 5 12.9 101.07     LegendNANA
08:00 Legend Double Dagger 9.5 9.2 98 20 9 16.1 101.01     LegendNANA
09:00 Legend Double Dagger 13.3 11.1 86 LegendMM 4 16.1 100.99     LegendNANA
10:00 Legend Double Dagger 17.7 12.8 73   0 16.1 100.89     LegendNANA
11:00 Legend Double Dagger 19.3 13.6 69 4 5 16.1 100.83     LegendNANA
12:00 Legend Double Dagger 22.2 13.2 56 28 8 16.1 100.72 25   LegendNANA
13:00 Legend Double Dagger 23.8 11.5 45 24 5 16.1 100.62 26   LegendNANA
14:00 Legend Double Dagger 24.9 11.1 42 24 17 16.1 100.50 27   LegendNANA
15:00 Legend Double Dagger 25.4 9.5 36 27 13 16.1 100.44 26   LegendNANA
16:00 Legend Double Dagger 25.4 9.6 36 28 9 16.1 100.37 26   LegendNANA
17:00 Legend Double Dagger 25.2 8.1 33 28 13 16.1 100.33 26   LegendNANA
18:00 Legend Double Dagger 23.6 10.2 42 28 8 16.1 100.31 25   LegendNANA
19:00 Legend Double Dagger 21.5 10.3 49 27 9 16.1 100.30     LegendNANA
20:00 Legend Double Dagger 17.4 11.9 70 30 4 16.1 100.34     LegendNANA
21:00 Legend Double Dagger 18.0 13.2 73 29 5 16.1 100.37     LegendNANA
22:00 Legend Double Dagger 17.6 11.9 69 29 5 16.1 100.40     LegendNANA
23:00 Legend Double Dagger 16.4 11.4 72 29 5 16.1 100.42     LegendNANA

Notes on Data Quality.

Legend

  • E = Estimated
  • M = Missing
  • NA = Not Available
  • ‡ = Partner data that is not subject to review by the National Climate Archives
Date modified: